Dunkirk, NY

2:18 AM EDT on March 26, 2017 (GMT -0400)
Chautauqua County-Dunkirk

Weather History for KDKK - January, 2013

Change the Weather History Date:

Wednesday, January 23, 2013

  Actual Average Record
Temperature  
Mean Temperature 13 °F -  
Max Temperature 16 °F 36 °F 62 °F (1967)
Min Temperature 10 °F 21 °F -14 °F (2011)
Degree Days  
Heating Degree Days 52    
Moisture  
Dew Point 5 °F    
Average Humidity 74    
Maximum Humidity 85    
Minimum Humidity 51    
Precipitation  
Precipitation 0.03 in - - ()
Sea Level Pressure  
Sea Level Pressure 30.15 in    
Wind  
Wind Speed 10 mph (SW)    
Max Wind Speed 16 mph    
Max Gust Speed 25 mph    
Visibility 4 miles    
Events Fog , Snow    
Averages and records for this station are not official NWS values.
T = Trace of Precipitation, MM = Missing Value Source: NWS Daily Summary

Daily Weather History Graph

Daily Weather History Graph

Search for Another Location

Airport or City:

Trip Planner

Search our weather history database for the weather conditions in past years. The results will help you decide how hot, cold, wet, or windy it might be!

Date:

Astronomy

Jan. 23, 2013 Rise Set
Actual Time 7:38 AM EST 5:19 PM EST
Civil Twilight 7:08 AM EST 5:50 PM EST
Nautical Twilight 6:34 AM EST 6:24 PM EST
Astronomical Twilight 6:00 AM EST 6:57 PM EST
Moon 2:27 PM EST (1/23) 4:50 AM EST (1/23)
Length of Visible Light 10h 41m
Length of Day
9h 40m
Waxing Gibbous, 89% of the Moon is Illuminated
Jan 23
Waxing Gibbous
Jan 26
Full
Feb 3
Last Quarter
Feb 10
New
Feb 17
First Quarter

Hourly Weather History & Observations

Time (EST) Temp. Windchill Dew Point Humidity Pressure Visibility Wind Dir Wind Speed Gust Speed Precip Events Conditions
12:53 AM 10.9 °F -4.1 °F -4.0 °F 51% 30.20 in 10.0 mi West 12.7 mph 19.6 mph N/A   Overcast
1:53 AM 10.9 °F -4.7 °F -2.9 °F 54% 30.21 in 10.0 mi WNW 13.8 mph 23.0 mph N/A   Overcast
2:53 AM 10.9 °F -1.8 °F -4.0 °F 51% 30.22 in 10.0 mi WNW 9.2 mph 20.7 mph N/A   Overcast
3:53 AM 10.9 °F -2.6 °F -4.0 °F 51% 30.22 in 10.0 mi WNW 10.4 mph 20.7 mph N/A   Overcast
4:53 AM 10.9 °F -2.6 °F -2.0 °F 56% 30.22 in 10.0 mi West 10.4 mph 16.1 mph N/A   Overcast
5:53 AM 10.9 °F 0.2 °F -2.9 °F 54% 30.22 in 10.0 mi West 6.9 mph 17.3 mph N/A   Overcast
6:53 AM 10.9 °F 1.4 °F -2.0 °F 56% 30.23 in 10.0 mi West 5.8 mph - N/A   Overcast
7:53 AM 10.9 °F -1.8 °F -0.0 °F 61% 30.23 in 10.0 mi NW 9.2 mph 16.1 mph 0.00 in   Overcast
8:53 AM 10.9 °F -0.8 °F -2.0 °F 56% 30.24 in 10.0 mi WNW 8.1 mph - N/A   Overcast
9:53 AM 12.0 °F 2.7 °F 1.0 °F 61% 30.25 in 10.0 mi WNW 5.8 mph - N/A   Overcast
10:38 AM 12.2 °F 4.3 °F 3.2 °F 67% 30.20 in 2.5 mi West 4.6 mph - 0.00 in Snow Light Snow
10:53 AM 12.0 °F 4.1 °F 3.9 °F 70% 30.25 in 4.0 mi Variable 4.6 mph - 0.00 in Snow Light Snow
11:08 AM 12.2 °F -0.2 °F 3.2 °F 67% 30.20 in 1.8 mi West 9.2 mph - 0.00 in Snow Light Snow
11:30 AM 12.2 °F 1.7 °F 3.2 °F 67% 30.19 in 2.0 mi WSW 6.9 mph - 0.00 in Snow Light Snow
11:40 AM 10.4 °F -2.4 °F 6.8 °F 85% 30.19 in 1.0 mi SW 9.2 mph - 0.00 in Snow Light Snow
11:48 AM 10.4 °F -3.3 °F 6.8 °F 85% 30.19 in 0.5 mi SSW 10.4 mph - 0.00 in Fog , Snow Snow
11:53 AM 10.9 °F -4.1 °F 6.1 °F 81% 30.24 in 0.2 mi SW 12.7 mph - 0.00 in Snow Heavy Snow
12:09 PM 10.4 °F -4.1 °F 6.8 °F 85% 30.18 in 0.2 mi SW 11.5 mph - 0.00 in Fog , Snow Heavy Snow
12:53 PM 10.9 °F -0.8 °F 6.1 °F 81% 30.20 in 0.5 mi SSW 8.1 mph - 0.00 in Snow Snow
12:59 PM 10.4 °F -2.4 °F 5.0 °F 79% 30.16 in 1.2 mi SW 9.2 mph - 0.00 in Snow Light Snow
1:03 PM 10.4 °F -4.8 °F 3.2 °F 73% 30.15 in 2.0 mi SW 12.7 mph - 0.00 in Snow Light Snow
1:13 PM 12.2 °F -2.5 °F 3.2 °F 67% 30.15 in 4.0 mi SW 12.7 mph - 0.00 in Snow Light Snow
1:22 PM 12.2 °F -2.5 °F 3.2 °F 67% 30.15 in 2.0 mi SSW 12.7 mph - 0.00 in Snow Light Snow
1:36 PM 12.2 °F -1.0 °F 3.2 °F 67% 30.14 in 3.0 mi SSW 10.4 mph - 0.00 in Snow Light Snow
1:53 PM 12.0 °F 0.5 °F 3.9 °F 70% 30.18 in 5.0 mi WSW 8.1 mph - 0.00 in Snow Light Snow
2:53 PM 12.9 °F -3.4 °F 6.1 °F 74% 30.18 in 3.0 mi SSW 16.1 mph 24.2 mph 0.00 in Snow Light Snow
2:59 PM 12.2 °F -3.1 °F 6.8 °F 79% 30.13 in 2.5 mi SSW 13.8 mph 24.2 mph 0.00 in Snow Light Snow
3:04 PM 12.2 °F -1.8 °F 6.8 °F 79% 30.13 in 1.8 mi SW 11.5 mph - 0.00 in Snow Light Snow
3:17 PM 12.2 °F -3.1 °F 6.8 °F 79% 30.13 in 1.8 mi SSW 13.8 mph - 0.00 in Snow Light Snow
3:35 PM 12.2 °F -2.5 °F 6.8 °F 79% 30.12 in 1.0 mi SW 12.7 mph - 0.00 in Snow Light Snow
3:46 PM 12.2 °F -1.0 °F 6.8 °F 79% 30.12 in 2.0 mi SSW 10.4 mph - 0.00 in Snow Light Snow
3:53 PM 12.9 °F -0.2 °F 7.0 °F 77% 30.17 in 2.5 mi SSW 10.4 mph - 0.00 in Snow Light Snow
4:05 PM 12.2 °F -1.8 °F 6.8 °F 79% 30.12 in 5.0 mi SW 11.5 mph - 0.00 in Snow Light Snow
4:13 PM 12.2 °F -1.0 °F 6.8 °F 79% 30.12 in 3.0 mi SSW 10.4 mph - 0.00 in Snow Light Snow
4:16 PM 12.2 °F -1.8 °F 6.8 °F 79% 30.12 in 2.0 mi SSW 11.5 mph - 0.00 in Snow Light Snow
4:26 PM 12.2 °F -1.8 °F 6.8 °F 79% 30.12 in 3.0 mi SW 11.5 mph - 0.00 in Snow Light Snow
4:34 PM 12.2 °F -1.0 °F 6.8 °F 79% 30.12 in 1.8 mi SSW 10.4 mph 17.3 mph 0.00 in Snow Light Snow
4:41 PM 12.2 °F 0.7 °F 6.8 °F 79% 30.12 in 1.2 mi SSW 8.1 mph - 0.00 in Snow Light Snow
4:53 PM 12.9 °F 1.6 °F 7.0 °F 77% 30.16 in 2.5 mi SSW 8.1 mph - 0.00 in Snow Light Snow
4:59 PM 12.2 °F 0.7 °F 6.8 °F 79% 30.11 in 3.0 mi SW 8.1 mph - 0.00 in Snow Light Snow
5:27 PM 14.0 °F -1.4 °F 3.2 °F 62% 30.11 in 2.5 mi West 15.0 mph 25.3 mph 0.00 in Snow Light Snow
5:35 PM 14.0 °F 2.0 °F 1.4 °F 57% 30.11 in 9.0 mi West 9.2 mph 21.9 mph 0.00 in   Overcast
5:53 PM 15.1 °F 1.8 °F 1.0 °F 54% 30.15 in 9.0 mi West 11.5 mph 20.7 mph 0.00 in   Overcast
6:53 PM 16.0 °F 5.3 °F 3.0 °F 57% 30.14 in 10.0 mi West 8.1 mph - 0.00 in   Overcast
7:19 PM 12.2 °F -1.0 °F 6.8 °F 79% 30.10 in 2.5 mi SSW 10.4 mph 16.1 mph 0.00 in Snow Light Snow
7:23 PM 12.2 °F 0.7 °F 8.6 °F 85% 30.11 in 1.0 mi SSW 8.1 mph - 0.00 in Snow Light Snow
7:25 PM 12.2 °F 1.7 °F 8.6 °F 85% 30.10 in 0.8 mi SSW 6.9 mph - 0.00 in Snow Light Snow
7:42 PM 12.2 °F 0.7 °F 8.6 °F 85% 30.10 in 1.2 mi South 8.1 mph - 0.00 in Snow Light Snow
7:53 PM 12.0 °F 1.5 °F 8.1 °F 84% 30.14 in 2.0 mi South 6.9 mph - 0.00 in Snow Light Snow
8:00 PM 12.2 °F 1.7 °F 8.6 °F 85% 30.09 in 1.8 mi SSW 6.9 mph - 0.00 in Snow Light Snow
8:16 PM 12.2 °F 0.7 °F 6.8 °F 79% 30.09 in 3.0 mi SSW 8.1 mph - 0.00 in Snow Light Snow
8:29 PM 12.2 °F 1.7 °F 6.8 °F 79% 30.09 in 2.5 mi SSW 6.9 mph - 0.00 in Snow Light Snow
8:53 PM 12.0 °F -1.3 °F 7.0 °F 80% 30.13 in 1.5 mi South 10.4 mph - 0.00 in Snow Light Snow
9:05 PM 12.2 °F 0.7 °F 6.8 °F 79% 30.09 in 2.0 mi SSW 8.1 mph - 0.00 in Snow Light Snow
9:15 PM 12.2 °F -0.2 °F 6.8 °F 79% 30.09 in 4.0 mi SSW 9.2 mph - 0.00 in Snow Light Snow
9:50 PM 12.2 °F -1.0 °F 6.8 °F 79% 30.08 in 5.0 mi SSW 10.4 mph - 0.00 in Snow Light Snow
9:53 PM 12.0 °F 0.5 °F 6.1 °F 77% 30.13 in 5.0 mi SSW 8.1 mph - 0.00 in Snow Light Snow
10:11 PM 10.4 °F -1.5 °F 6.8 °F 85% 30.09 in 1.8 mi SSW 8.1 mph - 0.00 in Snow Light Snow
10:19 PM 12.2 °F 2.9 °F 6.8 °F 79% 30.09 in 3.0 mi South 5.8 mph - 0.00 in Snow Light Snow
10:53 PM 10.9 °F 4.7 °F 5.0 °F 77% 30.12 in 3.0 mi SSW 3.5 mph - 0.00 in Snow Light Snow
10:58 PM 10.4 °F 4.0 °F 5.0 °F 79% 30.08 in 1.8 mi Variable 3.5 mph - 0.00 in Snow Light Snow
11:04 PM 10.4 °F - 6.8 °F 85% 30.08 in 0.8 mi Calm Calm - 0.00 in Snow Light Snow
11:20 PM 10.4 °F - 6.8 °F 85% 30.08 in 0.5 mi Calm Calm - 0.02 in Fog , Snow Snow
11:48 PM 10.4 °F 0.8 °F 6.8 °F 85% 30.07 in 1.2 mi South 5.8 mph - 0.03 in Snow Light Snow
11:49 PM 10.9 °F 1.4 °F 7.0 °F 84% 30.12 in 1.2 mi South 5.8 mph - 0.03 in Snow Light Snow